| time (UTC) | temp F | wind direction | speed MPH | gust MPH | rain 1hr in | rain 24hr in | rain mn in | humidity % | barometer mb |
| 20260503020530 | 63 | 317 | 2.0 | 8.0 | 0.00 | 0.00 | 0.00 | 66 | 1016.3 |
| 20260503020038 | 63 | 317 | 4.0 | 8.0 | 0.00 | 0.00 | 0.00 | 66 | 1016.3 |
| 20260503015532 | 64 | 29 | 2.0 | 6.0 | 0.00 | 0.00 | 0.00 | 66 | 1016.3 |
| 20260503015030 | 64 | 42 | 2.0 | 6.0 | 0.00 | 0.00 | 0.00 | 66 | 1016.2 |
| 20260503014546 | 65 | 47 | 1.0 | 6.0 | 0.00 | 0.00 | 0.00 | 67 | 1016.2 |
| 20260503014030 | 65 | 0 | 0.0 | 3.0 | 0.00 | 0.00 | 0.00 | 66 | 1016.1 |
| 20260503013533 | 65 | 0 | 0.0 | 3.0 | 0.00 | 0.00 | 0.00 | 67 | 1016.2 |
| 20260503013040 | 65 | 0 | 1.0 | 6.0 | 0.00 | 0.00 | 0.00 | 67 | 1016.2 |
| 20260503012530 | 65 | 107 | 1.0 | 6.0 | 0.00 | 0.00 | 0.00 | 66 | 1016.3 |
| 20260503012030 | 65 | 132 | 1.0 | 5.0 | 0.00 | 0.00 | 0.00 | 66 | 1016.3 |
| 20260503011539 | 65 | 0 | 0.0 | 4.0 | 0.00 | 0.00 | 0.00 | 67 | 1016.3 |
| 20260503011030 | 65 | 163 | 0.0 | 4.0 | 0.00 | 0.00 | 0.00 | 67 | 1016.3 |
| 20260503010529 | 66 | 163 | 0.0 | 4.0 | 0.00 | 0.00 | 0.00 | 67 | 1016.4 |
| 20260503010038 | 66 | 0 | 0.0 | 0.0 | 0.00 | 0.00 | 0.00 | 67 | 1016.4 |
| 20260503005531 | 66 | 0 | 0.0 | 5.0 | 0.00 | 0.00 | 0.00 | 67 | 1016.4 |
| 20260503005034 | 66 | 0 | 0.0 | 5.0 | 0.00 | 0.00 | 0.00 | 67 | 1016.3 |
| 20260503004536 | 66 | 163 | 0.0 | 4.0 | 0.00 | 0.00 | 0.00 | 67 | 1016.4 |
| 20260503004030 | 66 | 0 | 0.0 | 3.0 | 0.00 | 0.00 | 0.00 | 67 | 1016.4 |
| 20260503003530 | 66 | 0 | 0.0 | 4.0 | 0.00 | 0.00 | 0.00 | 67 | 1016.4 |
| 20260503003041 | 67 | 143 | 2.0 | 7.0 | 0.00 | 0.00 | 0.00 | 67 | 1016.3 |
| 20260503002534 | 67 | 144 | 2.0 | 7.0 | 0.00 | 0.00 | 0.00 | 67 | 1016.5 |
| 20260503002030 | 67 | 156 | 3.0 | 6.0 | 0.00 | 0.00 | 0.00 | 67 | 1016.4 |
| 20260503001538 | 67 | 195 | 1.0 | 4.0 | 0.00 | 0.00 | 0.00 | 67 | 1016.4 |
| 20260503001030 | 67 | 199 | 1.0 | 7.0 | 0.00 | 0.00 | 0.00 | 67 | 1016.6 |
| 20260503000533 | 66 | 205 | 0.0 | 7.0 | 0.00 | 0.00 | 0.00 | 67 | 1016.5 |
| 20260503000054 | 66 | 209 | 3.0 | 9.0 | 0.00 | 0.00 | 0.00 | 67 | 1016.5 |
| 20260502235530 | 66 | 158 | 4.0 | 10.0 | 0.00 | 0.00 | 0.00 | 67 | 1016.6 |
| 20260502235030 | 66 | 138 | 2.0 | 10.0 | 0.00 | 0.00 | 0.00 | 67 | 1016.6 |
| 20260502234536 | 66 | 113 | 4.0 | 10.0 | 0.00 | 0.00 | 0.00 | 67 | 1016.7 |
| 20260502234033 | 66 | 148 | 5.0 | 10.0 | 0.00 | 0.00 | 0.00 | 67 | 1016.7 |
| 20260502233530 | 66 | 105 | 3.0 | 9.0 | 0.00 | 0.00 | 0.00 | 67 | 1016.7 |
| 20260502233042 | 66 | 102 | 5.0 | 9.0 | 0.00 | 0.00 | 0.00 | 67 | 1016.8 |
| 20260502232534 | 66 | 136 | 2.0 | 7.0 | 0.00 | 0.00 | 0.00 | 67 | 1016.8 |
| 20260502232030 | 66 | 161 | 3.0 | 8.0 | 0.00 | 0.00 | 0.00 | 67 | 1017.0 |
| 20260502231558 | 66 | 142 | 3.0 | 8.0 | 0.00 | 0.00 | 0.00 | 67 | 1016.8 |
| 20260502231030 | 66 | 155 | 3.0 | 8.0 | 0.00 | 0.00 | 0.00 | 67 | 1016.8 |
| 20260502230530 | 66 | 157 | 2.0 | 10.0 | 0.00 | 0.00 | 0.00 | 67 | 1017.0 |
| 20260502230042 | 66 | 146 | 2.0 | 10.0 | 0.00 | 0.00 | 0.00 | 67 | 1017.0 |
| 20260502225530 | 66 | 138 | 3.0 | 8.0 | 0.00 | 0.00 | 0.00 | 67 | 1017.1 |
| 20260502225034 | 66 | 181 | 2.0 | 15.0 | 0.00 | 0.00 | 0.00 | 67 | 1017.0 |
| 20260502224538 | 66 | 156 | 7.0 | 15.0 | 0.00 | 0.00 | 0.00 | 67 | 1017.1 |
| 20260502224030 | 66 | 134 | 8.0 | 12.0 | 0.00 | 0.00 | 0.00 | 67 | 1017.1 |
| 20260502223530 | 66 | 144 | 6.0 | 12.0 | 0.00 | 0.00 | 0.00 | 67 | 1017.2 |
| 20260502223040 | 66 | 161 | 6.0 | 12.0 | 0.00 | 0.00 | 0.00 | 67 | 1017.2 |
| 20260502222531 | 66 | 179 | 4.0 | 8.0 | 0.00 | 0.00 | 0.00 | 67 | 1017.2 |
| 20260502222031 | 66 | 171 | 2.0 | 19.0 | 0.00 | 0.00 | 0.00 | 67 | 1017.3 |
| 20260502221549 | 65 | 167 | 4.0 | 19.0 | 0.00 | 0.00 | 0.00 | 67 | 1017.4 |
| 20260502221031 | 65 | 138 | 8.0 | 17.0 | 0.00 | 0.00 | 0.00 | 67 | 1017.4 |
| 20260502220530 | 67 | 138 | 6.0 | 16.0 | 0.00 | 0.00 | 0.00 | 67 | 1017.4 |
| 20260502220048 | 68 | 133 | 2.0 | 10.0 | 0.00 | 0.00 | 0.00 | 67 | 1017.6 |
| 20260502215532 | 67 | 87 | 3.0 | 10.0 | 0.00 | 0.00 | 0.00 | 67 | 1017.6 |
| 20260502215031 | 66 | 0 | 2.0 | 11.0 | 0.00 | 0.00 | 0.00 | 67 | 1017.7 |
| 20260502214550 | 66 | 136 | 1.0 | 12.0 | 0.00 | 0.00 | 0.00 | 67 | 1017.8 |
| 20260502214031 | 66 | 125 | 7.0 | 13.0 | 0.00 | 0.00 | 0.00 | 67 | 1018.0 |
| 20260502213530 | 66 | 166 | 6.0 | 14.0 | 0.00 | 0.00 | 0.00 | 67 | 1018.0 |
| 20260502213042 | 66 | 143 | 8.0 | 14.0 | 0.00 | 0.00 | 0.00 | 67 | 1018.1 |
| 20260502212531 | 66 | 149 | 6.0 | 12.0 | 0.00 | 0.00 | 0.00 | 67 | 1018.2 |
| 20260502212032 | 66 | 174 | 6.0 | 17.0 | 0.00 | 0.00 | 0.00 | 67 | 1018.2 |
| 20260502211542 | 66 | 165 | 9.0 | 17.0 | 0.00 | 0.00 | 0.00 | 67 | 1018.2 |
| 20260502211030 | 66 | 173 | 5.0 | 18.0 | 0.00 | 0.00 | 0.00 | 67 | 1018.3 |
| 20260502210534 | 66 | 141 | 10.0 | 18.0 | 0.00 | 0.00 | 0.00 | 67 | 1018.4 |
| 20260502210040 | 65 | 171 | 2.0 | 18.0 | 0.00 | 0.00 | 0.00 | 67 | 1018.5 |
| 20260502205531 | 65 | 200 | 6.0 | 18.0 | 0.00 | 0.00 | 0.00 | 66 | 1018.6 |
| 20260502205030 | 66 | 204 | 9.0 | 16.0 | 0.00 | 0.00 | 0.00 | 67 | 1018.5 |
| 20260502204548 | 66 | 227 | 10.0 | 16.0 | 0.00 | 0.00 | 0.00 | 67 | 1018.5 |
| 20260502204032 | 65 | 169 | 2.0 | 12.0 | 0.00 | 0.00 | 0.00 | 67 | 1018.6 |
| 20260502203530 | 65 | 183 | 5.0 | 15.0 | 0.00 | 0.00 | 0.00 | 66 | 1018.6 |
| 20260502203047 | 65 | 200 | 6.0 | 15.0 | 0.00 | 0.00 | 0.00 | 66 | 1018.7 |
| 20260502202532 | 65 | 188 | 9.0 | 14.0 | 0.00 | 0.00 | 0.00 | 67 | 1018.7 |
| 20260502202030 | 66 | 198 | 3.0 | 17.0 | 0.00 | 0.00 | 0.00 | 67 | 1018.8 |
| 20260502201543 | 66 | 144 | 2.0 | 17.0 | 0.00 | 0.00 | 0.00 | 67 | 1018.8 |
| 20260502201030 | 65 | 143 | 7.0 | 16.0 | 0.00 | 0.00 | 0.00 | 66 | 1018.8 |
| 20260502200530 | 65 | 150 | 4.0 | 11.0 | 0.00 | 0.00 | 0.00 | 66 | 1018.9 |
| 20260502200042 | 65 | 167 | 7.0 | 14.0 | 0.00 | 0.00 | 0.00 | 66 | 1018.9 |
| 20260502195530 | 65 | 155 | 9.0 | 14.0 | 0.00 | 0.00 | 0.00 | 67 | 1018.8 |
| 20260502195030 | 65 | 140 | 7.0 | 14.0 | 0.00 | 0.00 | 0.00 | 67 | 1018.7 |
| 20260502194548 | 65 | 119 | 3.0 | 14.0 | 0.00 | 0.00 | 0.00 | 67 | 1018.8 |
| 20260502194030 | 65 | 161 | 4.0 | 14.0 | 0.00 | 0.00 | 0.00 | 67 | 1018.9 |
| 20260502193530 | 64 | 126 | 2.0 | 12.0 | 0.00 | 0.00 | 0.00 | 67 | 1019.0 |
| 20260502193057 | 64 | 127 | 2.0 | 10.0 | 0.00 | 0.00 | 0.00 | 66 | 1019.2 |
| 20260502192531 | 64 | 161 | 5.0 | 16.0 | 0.00 | 0.00 | 0.00 | 67 | 1019.4 |
| 20260502192029 | 64 | 169 | 7.0 | 16.0 | 0.00 | 0.00 | 0.00 | 67 | 1019.4 |
| 20260502191542 | 63 | 125 | 4.0 | 12.0 | 0.00 | 0.00 | 0.00 | 67 | 1019.4 |
| 20260502191032 | 63 | 141 | 6.0 | 13.0 | 0.00 | 0.00 | 0.00 | 67 | 1019.4 |
| 20260502190533 | 63 | 138 | 4.0 | 13.0 | 0.00 | 0.00 | 0.00 | 67 | 1019.5 |
| 20260502190044 | 63 | 164 | 8.0 | 13.0 | 0.00 | 0.00 | 0.00 | 67 | 1019.6 |
| 20260502185530 | 63 | 175 | 6.0 | 13.0 | 0.00 | 0.00 | 0.00 | 66 | 1019.7 |
| 20260502185030 | 63 | 186 | 7.0 | 13.0 | 0.00 | 0.00 | 0.00 | 67 | 1019.7 |
| 20260502184543 | 63 | 159 | 5.0 | 13.0 | 0.00 | 0.00 | 0.00 | 66 | 1019.8 |
| 20260502184030 | 63 | 146 | 7.0 | 14.0 | 0.00 | 0.00 | 0.00 | 66 | 1019.9 |
| 20260502183532 | 62 | 148 | 5.0 | 17.0 | 0.00 | 0.00 | 0.00 | 66 | 1019.9 |
| 20260502183040 | 62 | 142 | 10.0 | 17.0 | 0.00 | 0.00 | 0.00 | 66 | 1020.0 |
| 20260502182529 | 62 | 190 | 8.0 | 14.0 | 0.00 | 0.00 | 0.00 | 66 | 1019.9 |
| 20260502182030 | 62 | 135 | 5.0 | 16.0 | 0.00 | 0.00 | 0.00 | 66 | 1020.1 |
| 20260502181539 | 62 | 138 | 6.0 | 16.0 | 0.00 | 0.00 | 0.00 | 66 | 1020.1 |
| 20260502181030 | 61 | 152 | 3.0 | 16.0 | 0.00 | 0.00 | 0.00 | 66 | 1020.1 |
| 20260502180532 | 61 | 141 | 7.0 | 16.0 | 0.00 | 0.00 | 0.00 | 66 | 1020.1 |
| 20260502164030 | 56 | 134 | 8.0 | 12.0 | 0.00 | 0.00 | 0.00 | 66 | 1020.8 |
| 20260502163531 | 56 | 146 | 5.0 | 10.0 | 0.00 | 0.00 | 0.00 | 66 | 1020.8 |
| 20260502163048 | 55 | 140 | 4.0 | 10.0 | 0.00 | 0.00 | 0.00 | 66 | 1020.9 |
| 20260502162531 | 55 | 151 | 4.0 | 9.0 | 0.00 | 0.00 | 0.00 | 66 | 1020.8 |
| 20260502162034 | 55 | 140 | 4.0 | 9.0 | 0.00 | 0.00 | 0.00 | 66 | 1020.9 |
| 20260502161603 | 54 | 146 | 4.0 | 8.0 | 0.00 | 0.00 | 0.00 | 66 | 1021.0 |
| 20260502161038 | 54 | 160 | 5.0 | 9.0 | 0.00 | 0.00 | 0.00 | 66 | 1020.9 |
| 20260502160532 | 53 | 161 | 5.0 | 9.0 | 0.00 | 0.00 | 0.00 | 65 | 1020.9 |
| 20260502152029 | 42 | 152 | 0.0 | 3.0 | 0.00 | 0.00 | 0.00 | 64 | 1021.0 |
| 20260502151544 | 40 | 0 | 0.0 | 2.0 | 0.00 | 0.00 | 0.00 | 64 | 1021.0 |
| 20260502151032 | 39 | 0 | 0.0 | 2.0 | 0.00 | 0.00 | 0.00 | 64 | 1021.0 |
| 20260502150529 | 38 | 0 | 1.0 | 2.0 | 0.00 | 0.00 | 0.00 | 64 | 1021.1 |
| 20260502130528 | 20 | 0 | 0.0 | 2.0 | 0.00 | 0.00 | 0.00 | 63 | 1020.6 |
| 20260502123533 | 19 | 0 | 0.0 | 2.0 | 0.00 | 0.00 | 0.00 | 62 | 1020.5 |
| 20260502123107 | 19 | 173 | 0.0 | 3.0 | 0.00 | 0.00 | 0.00 | 62 | 1020.5 |
| 20260502122530 | 19 | 0 | 1.0 | 3.0 | 0.00 | 0.00 | 0.00 | 62 | 1020.5 |
| 20260502122034 | 19 | 173 | 1.0 | 3.0 | 0.00 | 0.00 | 0.00 | 63 | 1020.5 |
| 20260502121544 | 20 | 0 | 0.0 | 0.0 | 0.00 | 0.00 | 0.00 | 63 | 1020.5 |
| 20260502121031 | 20 | 0 | 0.0 | 0.0 | 0.00 | 0.00 | 0.00 | 63 | 1020.6 |
| 20260502120532 | 20 | 0 | 0.0 | 0.0 | 0.00 | 0.00 | 0.00 | 63 | 1020.5 |
| 20260502115530 | 20 | 0 | 0.0 | 0.0 | 0.00 | 0.00 | 0.00 | 63 | 1020.6 |
| 20260502115030 | 20 | 0 | 0.0 | 0.0 | 0.00 | 0.00 | 0.00 | 63 | 1020.6 |
| 20260502114537 | 20 | 0 | 0.0 | 0.0 | 0.00 | 0.00 | 0.00 | 63 | 1020.6 |
| 20260502114030 | 21 | 0 | 0.0 | 0.0 | 0.00 | 0.00 | 0.00 | 63 | 1020.6 |
| 20260502113530 | 21 | 0 | 0.0 | 0.0 | 0.00 | 0.00 | 0.00 | 63 | 1020.7 |
| 20260502113036 | 22 | 0 | 0.0 | 0.0 | 0.00 | 0.00 | 0.00 | 63 | 1020.7 |
| 20260502112529 | 23 | 0 | 0.0 | 0.0 | 0.00 | 0.00 | 0.00 | 63 | 1020.8 |
| 20260502112029 | 23 | 0 | 0.0 | 0.0 | 0.00 | 0.00 | 0.00 | 63 | 1020.8 |
| 20260502111535 | 23 | 0 | 0.0 | 0.0 | 0.00 | 0.00 | 0.00 | 63 | 1020.8 |
| 20260502111030 | 22 | 0 | 0.0 | 0.0 | 0.00 | 0.00 | 0.00 | 63 | 1020.7 |
| 20260502110530 | 22 | 0 | 0.0 | 0.0 | 0.00 | 0.00 | 0.00 | 63 | 1020.8 |
| 20260502110048 | 22 | 0 | 0.0 | 0.0 | 0.00 | 0.00 | 0.00 | 63 | 1020.9 |
| 20260502105531 | 22 | 0 | 0.0 | 0.0 | 0.00 | 0.00 | 0.00 | 63 | 1020.9 |
| 20260502105032 | 23 | 0 | 0.0 | 0.0 | 0.00 | 0.00 | 0.00 | 63 | 1021.0 |
| 20260502104541 | 23 | 0 | 0.0 | 0.0 | 0.00 | 0.00 | 0.00 | 63 | 1020.9 |
| 20260502104030 | 23 | 0 | 0.0 | 0.0 | 0.00 | 0.00 | 0.00 | 63 | 1020.9 |
| 20260502103530 | 23 | 0 | 0.0 | 0.0 | 0.00 | 0.00 | 0.00 | 63 | 1020.9 |
| 20260502103036 | 23 | 0 | 0.0 | 2.0 | 0.00 | 0.00 | 0.00 | 63 | 1020.9 |
| 20260502102530 | 23 | 0 | 0.0 | 2.0 | 0.00 | 0.00 | 0.00 | 63 | 1021.0 |
| 20260502102037 | 23 | 0 | 0.0 | 2.0 | 0.00 | 0.00 | 0.00 | 63 | 1021.0 |
| 20260502101540 | 23 | 0 | 0.0 | 0.0 | 0.00 | 0.00 | 0.00 | 63 | 1020.9 |
| 20260502101030 | 23 | 0 | 0.0 | 0.0 | 0.00 | 0.00 | 0.00 | 63 | 1021.0 |
| 20260502100530 | 23 | 0 | 0.0 | 0.0 | 0.00 | 0.00 | 0.00 | 63 | 1020.9 |
| 20260502091028 | 26 | 0 | 0.0 | 0.0 | 0.00 | 0.00 | 0.00 | 63 | 1020.9 |
| 20260502090528 | 26 | 0 | 0.0 | 0.0 | 0.00 | 0.00 | 0.00 | 63 | 1021.0 |
| 20260502071029 | 30 | 173 | 1.0 | 3.0 | 0.00 | 0.00 | 0.00 | 63 | 1021.4 |
| 20260502070532 | 30 | 0 | 1.0 | 2.0 | 0.00 | 0.00 | 0.00 | 63 | 1021.4 |
| 20260502070041 | 30 | 173 | 0.0 | 2.0 | 0.00 | 0.00 | 0.00 | 63 | 1021.5 |
| 20260502065528 | 31 | 0 | 0.0 | 2.0 | 0.00 | 0.00 | 0.00 | 63 | 1021.3 |
| 20260502065030 | 31 | 0 | 0.0 | 3.0 | 0.00 | 0.00 | 0.00 | 63 | 1021.3 |
| 20260502064538 | 31 | 0 | 0.0 | 3.0 | 0.00 | 0.00 | 0.00 | 64 | 1021.4 |
| 20260502064031 | 31 | 0 | 0.0 | 0.0 | 0.00 | 0.00 | 0.00 | 64 | 1021.4 |
| 20260502063532 | 32 | 0 | 0.0 | 0.0 | 0.00 | 0.00 | 0.00 | 63 | 1021.3 |
| 20260502063051 | 32 | 0 | 0.0 | 0.0 | 0.00 | 0.00 | 0.00 | 63 | 1021.3 |
| 20260502062529 | 32 | 0 | 0.0 | 0.0 | 0.00 | 0.00 | 0.00 | 64 | 1021.1 |
| 20260502062029 | 32 | 0 | 0.0 | 0.0 | 0.00 | 0.00 | 0.00 | 64 | 1021.1 |
| 20260502061544 | 32 | 0 | 0.0 | 0.0 | 0.00 | 0.00 | 0.00 | 64 | 1021.1 |
| 20260502061028 | 32 | 0 | 0.0 | 0.0 | 0.00 | 0.00 | 0.00 | 63 | 1021.2 |
| 20260502060530 | 32 | 0 | 0.0 | 0.0 | 0.00 | 0.00 | 0.00 | 64 | 1021.0 |
| 20260502060045 | 32 | 0 | 0.0 | 0.0 | 0.00 | 0.00 | 0.00 | 64 | 1021.1 |
| 20260502055529 | 32 | 0 | 0.0 | 0.0 | 0.00 | 0.00 | 0.00 | 64 | 1021.1 |
| 20260502055032 | 33 | 0 | 0.0 | 5.0 | 0.00 | 0.00 | 0.00 | 64 | 1021.3 |
| 20260502054542 | 33 | 0 | 0.0 | 5.0 | 0.00 | 0.00 | 0.00 | 64 | 1021.3 |
| 20260502054030 | 34 | 0 | 0.0 | 0.0 | 0.00 | 0.00 | 0.00 | 64 | 1021.1 |
| 20260502053530 | 34 | 0 | 0.0 | 0.0 | 0.00 | 0.00 | 0.00 | 64 | 1021.0 |
| 20260502053043 | 35 | 0 | 0.0 | 0.0 | 0.00 | 0.00 | 0.00 | 64 | 1021.1 |
| 20260502052529 | 35 | 0 | 0.0 | 0.0 | 0.00 | 0.00 | 0.00 | 64 | 1021.1 |
| 20260502052029 | 35 | 0 | 0.0 | 0.0 | 0.00 | 0.00 | 0.00 | 64 | 1021.1 |
| 20260502051537 | 35 | 0 | 0.0 | 0.0 | 0.00 | 0.00 | 0.00 | 64 | 1021.1 |
| 20260502051029 | 36 | 0 | 0.0 | 0.0 | 0.00 | 0.00 | 0.00 | 64 | 1021.2 |
| 20260502050529 | 37 | 0 | 0.0 | 0.0 | 0.00 | 0.00 | 0.00 | 64 | 1021.2 |
| 20260502050047 | 38 | 0 | 0.0 | 1.0 | 0.00 | 0.00 | 0.00 | 64 | 1021.1 |
| 20260502045529 | 38 | 0 | 0.0 | 5.0 | 0.00 | 0.00 | 0.00 | 64 | 1021.3 |
| 20260502045031 | 37 | 0 | 0.0 | 6.0 | 0.00 | 0.00 | 0.00 | 64 | 1021.0 |
| 20260502044544 | 37 | 175 | 4.0 | 6.0 | 0.00 | 0.00 | 0.00 | 64 | 1021.0 |
| 20260502044028 | 39 | 171 | 0.0 | 5.0 | 0.00 | 0.00 | 0.00 | 64 | 1020.9 |
| 20260502043528 | 40 | 0 | 0.0 | 4.0 | 0.00 | 0.00 | 0.00 | 64 | 1021.0 |
| 20260502043035 | 41 | 171 | 0.0 | 2.0 | 0.00 | 0.00 | 0.00 | 64 | 1020.8 |
| 20260502042528 | 41 | 0 | 0.0 | 0.0 | 0.00 | 0.00 | 0.00 | 64 | 1020.6 |
| 20260502042032 | 41 | 0 | 0.0 | 0.0 | 0.00 | 0.00 | 0.00 | 64 | 1020.7 |
| 20260502041547 | 42 | 0 | 0.0 | 2.0 | 0.00 | 0.00 | 0.00 | 64 | 1020.6 |
| 20260502041028 | 43 | 0 | 0.0 | 2.0 | 0.00 | 0.00 | 0.00 | 64 | 1020.5 |
| 20260502040529 | 44 | 0 | 0.0 | 4.0 | 0.00 | 0.00 | 0.00 | 65 | 1020.4 |
| 20260502040040 | 44 | 0 | 0.0 | 4.0 | 0.00 | 0.00 | 0.00 | 65 | 1020.5 |
| 20260502035529 | 44 | 0 | 0.0 | 4.0 | 0.00 | 0.00 | 0.00 | 65 | 1020.4 |
| 20260502035029 | 44 | 171 | 1.0 | 4.0 | 0.00 | 0.00 | 0.00 | 65 | 1020.2 |
| 20260502034537 | 44 | 171 | 0.0 | 0.0 | 0.00 | 0.00 | 0.00 | 65 | 1020.3 |
| 20260502034029 | 45 | 0 | 0.0 | 0.0 | 0.00 | 0.00 | 0.00 | 65 | 1020.1 |
| 20260502033535 | 45 | 0 | 0.0 | 2.0 | 0.00 | 0.00 | 0.00 | 65 | 1020.1 |
| 20260502033044 | 45 | 0 | 0.0 | 5.0 | 0.00 | 0.00 | 0.00 | 65 | 1020.1 |
| 20260502032529 | 46 | 171 | 2.0 | 5.0 | 0.00 | 0.00 | 0.00 | 65 | 1019.9 |
| 20260502032029 | 49 | 0 | 1.0 | 2.0 | 0.00 | 0.00 | 0.00 | 65 | 1019.7 |
| 20260502031536 | 49 | 175 | 0.0 | 4.0 | 0.00 | 0.00 | 0.00 | 65 | 1019.6 |
| 20260502031029 | 50 | 0 | 0.0 | 4.0 | 0.00 | 0.00 | 0.00 | 65 | 1019.4 |
| 20260502030529 | 50 | 175 | 2.0 | 4.0 | 0.00 | 0.00 | 0.00 | 65 | 1019.4 |
| 20260502030042 | 50 | 175 | 2.0 | 4.0 | 0.00 | 0.00 | 0.00 | 65 | 1019.1 |
| 20260502025529 | 51 | 175 | 1.0 | 4.0 | 0.00 | 0.00 | 0.00 | 65 | 1019.2 |
| 20260502025031 | 51 | 175 | 1.0 | 4.0 | 0.00 | 0.00 | 0.00 | 65 | 1019.0 |
| 20260502024550 | 52 | 175 | 3.0 | 4.0 | 0.00 | 0.00 | 0.00 | 65 | 1019.1 |
| 20260502024028 | 52 | 175 | 1.0 | 4.0 | 0.00 | 0.00 | 0.00 | 65 | 1019.1 |
| 20260502023529 | 53 | 0 | 0.0 | 6.0 | 0.00 | 0.00 | 0.00 | 65 | 1019.0 |
| 20260502023036 | 54 | 175 | 1.0 | 6.0 | 0.00 | 0.00 | 0.00 | 66 | 1019.1 |
| 20260502022531 | 55 | 170 | 4.0 | 6.0 | 0.00 | 0.00 | 0.00 | 66 | 1019.0 |
| 20260502022032 | 57 | 164 | 4.0 | 6.0 | 0.00 | 0.00 | 0.00 | 66 | 1019.1 |
| 20260502021536 | 59 | 146 | 2.0 | 4.0 | 0.00 | 0.00 | 0.00 | 66 | 1019.0 |
| 20260502021029 | 60 | 146 | 1.0 | 4.0 | 0.00 | 0.00 | 0.00 | 66 | 1018.9 |